Location: Kosice
(48.7167°N, 21.2500°E)
Time: 13:08:21
(UTC+01:00)

ISS - Visible Passes

Search period start: 22 March 2019 00:00
Search period end: 01 April 2019 01:00
Orbit: 406 x 411 km, 51.6° (Epoch: 22 March)

Date Brightness Start Highest point End Pass type
(mag) Time Alt. Az. Time Alt. Az. Time Alt. Az.
22 Mar -2.9 19:38:22 10° SW 19:40:45 36° S 19:40:45 36° S visible
23 Mar -2.7 18:47:44 10° SSW 18:50:36 28° SE 18:52:26 17° E visible
23 Mar -1.8 20:23:40 10° WSW 20:25:12 25° W 20:25:12 25° W visible
24 Mar -4.0 19:32:36 10° WSW 19:35:55 81° SSE 19:36:40 49° ENE visible
24 Mar -0.4 21:09:25 10° W 21:09:26 10° W 21:09:26 10° W visible
25 Mar -3.6 18:41:39 10° SW 18:44:53 54° SSE 18:47:59 11° ENE visible
25 Mar -2.6 20:18:14 10° W 20:20:44 42° WNW 20:20:44 42° WNW visible
26 Mar -3.5 19:27:04 10° W 19:30:21 65° NNW 19:31:55 28° ENE visible
26 Mar -0.8 21:03:57 10° WNW 21:04:40 15° WNW 21:04:40 15° WNW visible
27 Mar -3.8 18:35:55 10° WSW 18:39:14 86° NNW 18:42:32 10° ENE visible
27 Mar -2.9 20:12:48 10° WNW 20:15:45 47° NNW 20:15:45 47° NNW visible
28 Mar -3.1 19:21:35 10° W 19:24:49 51° N 19:26:45 21° ENE visible
28 Mar -1.1 20:58:22 10° WNW 20:59:30 19° WNW 20:59:30 19° WNW visible
29 Mar -3.3 18:30:22 10° W 18:33:38 59° NNW 18:36:55 10° ENE visible
29 Mar -3.3 20:07:14 10° WNW 20:10:27 52° N 20:10:27 52° N visible
30 Mar -3.1 19:16:02 10° WNW 19:19:16 48° N 19:21:22 19° ENE visible
30 Mar -1.4 20:52:42 10° WNW 20:54:05 23° WNW 20:54:05 23° WNW visible
31 Mar -3.8 21:01:33 10° WNW 21:04:51 71° NNE 21:04:59 70° NE visible
